Location: Gwatt
(46.7204°N, 7.6223°E)
Time: 01:11:46
(UTC+00:00)

Cosmos 1833 Rocket - Pass Details

Date: 18 September 2020
Orbit: 831 x 841 km, 71.0° (Epoch: 31 October)

Event Time Altitude Azimuth Distance (km) Brightness Sun altitude
Rises 21:44:05 0° 328° (NNW) 3,406 6.8 -37.2°
Reaches altitude 10° 21:46:38 10° 322° (NW) 2,467 5.8 -37.4°
Enters shadow 21:49:29 28° 304° (NW) 1,541 4.4 -37.6°
